Location: Étavigny
(49.1201°N, 2.9800°E)
Time: 11:54:45
(UTC+00:00)

Cosmos 2228 - Pass Details

Date: 28 January 2023
Orbit: 585 x 612 km, 82.5° (Epoch: 22 March)

Event Time Altitude Azimuth Distance (km) Brightness Sun altitude
Rises 17:21:07 0° 1° (N) 2,836 6.2 -7.3°
Reaches altitude 10° 17:23:48 10° 18° (NNE) 1,925 5.2 -7.7°
Maximum altitude 17:27:01 21° 68° (ENE) 1,352 4.2 -8.2°
Drops below altitude 10° 17:30:14 10° 117° (ESE) 1,909 5.2 -8.7°
Sets 17:32:52 0° 134° (SE) 2,803 6.1 -9.1°
